sat.trackr.live / text

‹ back to catalog

ONEWEB-0420

NORAD 50495 · 2021-132AC

PAYLOAD ACTIVE UNKNOWN

§ Identity

Operator
Country
UK
Launch date
2021-12-27
Launch site
TYMSC
Launch vehicle
Mass (kg)
RCS (m²)

Purposes: comms

External: N2YO · Heavens-Above · Gunter

§ Orbital elements

Epoch: 2026-05-25T02:32:23.775072Z

Period
109.20 min
Inclination
87.9161°
Eccentricity
0.0001669
Mean motion
13.18687149 rev/d
Perigee alt
1,188.5 km
Apogee alt
1,191.0 km
Semi-major
7,567.9 km
B*
-4.1252e-5
RAAN
340.0540°
Arg perigee
84.7322°
Mean anomaly
275.4001°
Rev number
21,853

§ Raw data

ONEWEB-04201 50495U 21132AC  26145.10583073 -.00000003  00000+0 -41252-4 0  99992 50495  87.9161 340.0540 0001669  84.7322 275.4001 13.18687149218537

JSON: /api/v1/satellites/50495 · /tle

For live sub-satellite position, see the globe view (requires WebGL).

§ Visibility from observer

Set your observer location to see the next 7 days of passes ≥ 10°. The values pass through the URL so the page stays shareable.

No JS? Fill the form by hand. The geolocation button needs JavaScript.